Other Surface Observations
Issued by NWS Charleston, SC

Home | Current Version | Previous Version | Text Only | Print | Product List | Glossary On
Versions: 1 2 3 4 5 6 7 8 9 10 11 12 13 14 15 16 17 18 19 20 21 22 23 24 25 26 27 28 29 30 31 32 33 34 35 36 37 38 39 40 41 42 43 44 45 46 47 48 49 50
000
SXUS52 KCHS 302327
OSOCHS

MARINE OBSERVATIONS
NATIONAL WEATHER SERVICE CHARLESTON SC
700 PM EDT THU JUL 30 2015

...DOWNTOWN CHARLESTON AND HARBOR...

CITY           SKY/WX    TMP DP  RH WIND       PRES   REMARKS
WATERFRONT PRK   N/A     87  75  67 S7        29.83F HX  96

...LAKE MOULTRIE...

CITY           SKY/WX    TMP DP  RH WIND       PRES   REMARKS
PINOPOLIS      NOT AVBL

...LAKE AND SUPPLEMENTAL COASTAL OBSERVATIONS...

STATION/POSITION TIME  TEMP    WIND        PRES    WAVE   SWELL
                       AIR SEA DIR/SP/G            HT/PER HT/PER/DIR
                 (UTC) (F)     (DEG/KT/KT) (MB)    (FT/S) (FT/S/D)
FORT PULASKI     2300   86 87  180/  4/  6 1012.5R
SAPELO ISLAND    2300   88     160/  9     1012.0S
UPR LAKE MARION  NOT AVBL
WINYAH BAY       2200   87     140/  6     1010.0S
LAKE MURRAY      2300   91     180/  6/  6 1010.5S
ACE BASIN NERRS  2200   89        CALM     1012.0S


...C-MAN AND BUOY OBSERVATIONS...

STATION/POSITION TIME  TEMP    WIND        PRES    WAVE   SWELL
                       AIR SEA DIR/SP/G            HT/PER HT/PER/DIR
                 (UTC) (F)     (DEG/KT/KT) (MB)    (FT/S) (FT/S/D)
BUOY 41004       2250   85 85  250/  4/  6 1010.8F   2/ 7   2/ 7
BUOY 41008       2250   83 84  210/ 10/ 12 1012.3R   2/ 7   2/100/ 7
FOLLY BEACH CMAN 2300   86     200/ 11/ 12 1011.8R
CAPERS NS BUOY   2208   84     200/ 10/ 12 1011.3F
FRIPP NS BUOY    2200   86     210/ 10/ 12 1011.1F
5E ST. MARYS GA  2221      85                N/A     2/ 5


STATION/POSITION TIME  TEMP    WIND        PRES    WAVE   SWELL
                       AIR SEA DIR/SP/G            HT/PER HT/PER/DIR
                 (UTC) (F)     (DEG/KT/KT) (MB)    (FT/S) (FT/S/D)
FRYING PAN BUOY  2250   85 85  100/  6/  8 1011.0F   3/ 8   3/160/ 8
BUOY 41025       2250   83 86  170/ 16/ 19 1012.4R   5/ 6   2/ 90/10
CAPE LOOKOUT NC  2300   82     140/  9/  9 1011.6F
BUOY 41002       2250   81 82  210/ 25/ 31 1012.3S  10/ 9   5/220/ 9
BUOY 41010       2220   83 84  230/ 10/ 12 1014.3R
ST AUGUSTINE FL  2300   83 85  140/ 13/ 14 1013.8R

$$



USA.gov is the U.S. government's official web portal to all federal, state and local government web resources and services.